Time,TemperatureF,DewpointF,PressureIn,WindDirection,WindDirectionDegrees,WindSpeedMPH,WindSpeedGustMPH,Humidity,HourlyPrecipIn,Conditions,Clouds,dailyrainin,SolarRadiationWatts/m^2,SoftwareType,DateUTC
2013-02-21 00:21:00,25.0,25.0,-100.00,ESE,105,1.0,5.0,99,0.00,,,0.00,0.000000,,2013-02-21 08:21:00,
2013-02-21 00:31:00,25.0,25.0,-100.00,ESE,105,1.0,5.0,99,0.00,,,0.00,0.000000,,2013-02-21 08:31:00,
2013-02-21 00:41:00,25.0,25.0,-100.00,ESE,105,1.0,5.0,99,0.00,,,0.00,0.000000,,2013-02-21 08:41:00,
2013-02-21 00:51:00,25.0,25.0,-100.00,ESE,105,1.0,5.0,99,0.00,,,0.00,0.000000,,2013-02-21 08:51:00,
2013-02-21 01:22:00,29.0,29.0,-100.00,SE,131,1.0,5.0,99,0.00,,,0.00,0.000000,,2013-02-21 09:22:00,
2013-02-21 01:31:00,29.0,29.0,-100.00,SE,131,1.0,5.0,99,0.00,,,0.00,0.000000,,2013-02-21 09:31:00,
2013-02-21 01:41:00,29.0,29.0,-100.00,SE,131,1.0,5.0,99,0.00,,,0.00,0.000000,,2013-02-21 09:41:00,
2013-02-21 01:51:00,29.0,29.0,-100.00,SE,131,1.0,5.0,99,0.00,,,0.00,0.000000,,2013-02-21 09:51:00,
2013-02-21 02:21:00,29.0,29.0,-100.00,East,92,0.0,6.0,100,0.00,,,0.00,0.000000,,2013-02-21 10:21:00,
2013-02-21 02:31:00,29.0,29.0,-100.00,East,92,0.0,6.0,100,0.00,,,0.00,0.000000,,2013-02-21 10:31:00,
2013-02-21 02:41:00,29.0,29.0,-100.00,East,92,0.0,6.0,100,0.00,,,0.00,0.000000,,2013-02-21 10:41:00,
2013-02-21 02:51:00,29.0,29.0,-100.00,East,92,0.0,6.0,100,0.00,,,0.00,0.000000,,2013-02-21 10:51:00,
2013-02-21 03:31:00,28.0,28.0,-100.00,SE,139,0.0,5.0,100,0.00,,,0.00,0.000000,,2013-02-21 11:31:00,
2013-02-21 03:41:00,28.0,28.0,-100.00,SE,139,0.0,5.0,100,0.00,,,0.00,0.000000,,2013-02-21 11:41:00,
2013-02-21 03:51:00,28.0,28.0,-100.00,SE,139,0.0,5.0,100,0.00,,,0.00,0.000000,,2013-02-21 11:51:00,
2013-02-21 04:21:00,29.0,29.0,-100.00,East,100,0.0,3.0,100,0.00,,,0.00,0.000000,,2013-02-21 12:21:00,
2013-02-21 04:32:00,29.0,29.0,-100.00,East,100,0.0,3.0,100,0.00,,,0.00,0.000000,,2013-02-21 12:32:00,
2013-02-21 04:42:00,29.0,29.0,-100.00,East,100,0.0,3.0,100,0.00,,,0.00,0.000000,,2013-02-21 12:42:00,
2013-02-21 04:52:00,29.0,29.0,-100.00,East,100,0.0,3.0,100,0.00,,,0.00,0.000000,,2013-02-21 12:52:00,
2013-02-21 05:22:00,30.0,30.0,-100.00,ESE,121,1.0,4.0,100,0.00,,,0.00,0.000000,,2013-02-21 13:22:00,
2013-02-21 05:32:00,30.0,30.0,-100.00,ESE,121,1.0,4.0,100,0.00,,,0.00,0.000000,,2013-02-21 13:32:00,
2013-02-21 05:41:00,30.0,30.0,-100.00,ESE,121,1.0,4.0,100,0.00,,,0.00,0.000000,,2013-02-21 13:41:00,
2013-02-21 05:51:00,30.0,30.0,-100.00,ESE,121,1.0,4.0,100,0.00,,,0.00,0.000000,,2013-02-21 13:51:00,
2013-02-21 06:21:00,27.0,27.0,-100.00,East,99,0.0,5.0,99,0.00,,,0.00,0.000000,,2013-02-21 14:21:00,
2013-02-21 06:32:00,27.0,27.0,-100.00,East,99,0.0,5.0,99,0.00,,,0.00,0.000000,,2013-02-21 14:32:00,
2013-02-21 06:41:00,27.0,27.0,-100.00,East,99,0.0,5.0,99,0.00,,,0.00,0.000000,,2013-02-21 14:41:00,
2013-02-21 06:52:00,27.0,27.0,-100.00,East,99,0.0,5.0,99,0.00,,,0.00,0.000000,,2013-02-21 14:52:00,
2013-02-21 07:21:00,28.0,28.0,-100.00,ESE,117,0.0,5.0,99,0.00,,,0.00,4.000000,,2013-02-21 15:21:00,
2013-02-21 07:31:00,28.0,28.0,-100.00,ESE,117,0.0,5.0,99,0.00,,,0.00,4.000000,,2013-02-21 15:31:00,
2013-02-21 07:42:00,28.0,28.0,-100.00,ESE,117,0.0,5.0,99,0.00,,,0.00,4.000000,,2013-02-21 15:42:00,
2013-02-21 07:51:00,28.0,28.0,-100.00,ESE,117,0.0,5.0,99,0.00,,,0.00,4.000000,,2013-02-21 15:51:00,
2013-02-21 08:42:00,32.0,32.0,-100.00,ESE,103,0.0,4.0,99,0.00,,,0.00,81.000000,,2013-02-21 16:42:00,
2013-02-21 08:51:00,32.0,32.0,-100.00,ESE,103,0.0,4.0,99,0.00,,,0.00,81.000000,,2013-02-21 16:51:00,
2013-02-21 10:22:00,50.0,34.0,-100.00,WNW,283,0.0,2.0,53,-99.99,,,0.02,575.000000,,2013-02-21 18:22:00,
2013-02-21 11:21:00,47.0,35.0,-100.00,West,265,3.0,4.0,64,-99.99,,,0.09,646.000000,,2013-02-21 19:21:00,
2013-02-21 11:31:00,47.0,35.0,-100.00,West,265,3.0,4.0,64,-99.99,,,0.09,646.000000,,2013-02-21 19:31:00,
2013-02-21 11:41:00,47.0,35.0,-100.00,West,265,3.0,4.0,64,-99.99,,,0.09,646.000000,,2013-02-21 19:41:00,
2013-02-21 11:51:00,47.0,35.0,-100.00,West,265,3.0,4.0,64,-99.99,,,0.09,646.000000,,2013-02-21 19:51:00,
2013-02-21 13:21:00,41.0,36.0,-100.00,West,275,0.0,8.0,82,-99.99,,,0.24,525.000000,,2013-02-21 21:21:00,
2013-02-21 13:31:00,41.0,36.0,-100.00,West,275,0.0,8.0,82,-99.99,,,0.24,525.000000,,2013-02-21 21:31:00,
2013-02-21 13:42:00,41.0,36.0,-100.00,West,275,0.0,8.0,82,-99.99,,,0.24,525.000000,,2013-02-21 21:42:00,
2013-02-21 13:51:00,41.0,36.0,-100.00,West,275,0.0,8.0,82,-99.99,,,0.24,525.000000,,2013-02-21 21:51:00,
2013-02-21 14:21:00,41.0,35.0,-100.00,WSW,251,0.0,7.0,78,0.03,,,0.27,234.000000,,2013-02-21 22:21:00,
2013-02-21 14:31:00,41.0,35.0,-100.00,WSW,251,0.0,7.0,78,0.03,,,0.27,234.000000,,2013-02-21 22:31:00,
2013-02-21 14:41:00,41.0,35.0,-100.00,WSW,251,0.0,7.0,78,0.03,,,0.27,234.000000,,2013-02-21 22:41:00,
2013-02-21 14:52:00,41.0,35.0,-100.00,WSW,251,0.0,7.0,78,0.03,,,0.27,234.000000,,2013-02-21 22:52:00,
2013-02-21 15:21:00,50.0,33.0,-100.00,South,173,0.0,6.0,51,0.06,,,0.33,593.000000,,2013-02-21 23:21:00,
2013-02-21 15:31:00,50.0,33.0,-100.00,South,173,0.0,6.0,51,0.06,,,0.33,593.000000,,2013-02-21 23:31:00,
2013-02-21 15:41:00,50.0,33.0,-100.00,South,173,0.0,6.0,51,0.06,,,0.33,593.000000,,2013-02-21 23:41:00,
2013-02-21 15:52:00,50.0,33.0,-100.00,South,173,0.0,6.0,51,0.06,,,0.33,593.000000,,2013-02-21 23:52:00,
2013-02-21 16:21:00,42.0,34.0,-100.00,WSW,258,0.0,9.0,73,0.03,,,0.36,250.000000,,2013-02-22 00:21:00,
2013-02-21 16:31:00,42.0,34.0,-100.00,WSW,258,0.0,9.0,73,0.03,,,0.36,250.000000,,2013-02-22 00:31:00,
2013-02-21 16:41:00,42.0,34.0,-100.00,WSW,258,0.0,9.0,73,0.03,,,0.36,250.000000,,2013-02-22 00:41:00,
2013-02-21 16:51:00,42.0,34.0,-100.00,WSW,258,0.0,9.0,73,0.03,,,0.36,250.000000,,2013-02-22 00:51:00,
2013-02-21 17:21:00,46.0,33.0,-100.00,WNW,299,0.0,7.0,61,0.03,,,0.39,174.000000,,2013-02-22 01:21:00,
2013-02-21 17:32:00,46.0,33.0,-100.00,WNW,299,0.0,7.0,61,0.03,,,0.39,174.000000,,2013-02-22 01:32:00,
2013-02-21 17:42:00,46.0,33.0,-100.00,WNW,299,0.0,7.0,61,0.03,,,0.39,174.000000,,2013-02-22 01:42:00,
2013-02-21 17:51:00,46.0,33.0,-100.00,WNW,299,0.0,7.0,61,0.03,,,0.39,174.000000,,2013-02-22 01:51:00,
2013-02-21 18:21:00,34.0,34.0,-100.00,ENE,57,0.0,5.0,99,0.01,,,0.40,45.000000,,2013-02-22 02:21:00,
2013-02-21 18:31:00,34.0,34.0,-100.00,ENE,57,0.0,5.0,99,0.01,,,0.40,45.000000,,2013-02-22 02:31:00,
2013-02-21 18:42:00,34.0,34.0,-100.00,ENE,57,0.0,5.0,99,0.01,,,0.40,45.000000,,2013-02-22 02:42:00,
2013-02-21 18:52:00,34.0,34.0,-100.00,ENE,57,0.0,5.0,99,0.01,,,0.40,45.000000,,2013-02-22 02:52:00,
2013-02-21 19:21:00,32.0,32.0,-100.00,ESE,119,0.0,2.0,100,0.00,,,0.40,0.000000,,2013-02-22 03:21:00,
2013-02-21 19:31:00,32.0,32.0,-100.00,ESE,119,0.0,2.0,100,0.00,,,0.40,0.000000,,2013-02-22 03:31:00,
2013-02-21 19:41:00,32.0,32.0,-100.00,ESE,119,0.0,2.0,100,0.00,,,0.40,0.000000,,2013-02-22 03:41:00,
2013-02-21 19:51:00,32.0,32.0,-100.00,ESE,119,0.0,2.0,100,0.00,,,0.40,0.000000,,2013-02-22 03:51:00,
2013-02-21 20:11:00,31.0,31.0,-100.00,ESE,113,0.0,4.0,99,0.00,,,0.40,0.000000,,2013-02-22 04:11:00,
2013-02-21 20:21:00,31.0,31.0,-100.00,ESE,113,0.0,4.0,99,0.00,,,0.40,0.000000,,2013-02-22 04:21:00,
2013-02-21 20:32:00,31.0,31.0,-100.00,ESE,113,0.0,4.0,99,0.00,,,0.40,0.000000,,2013-02-22 04:32:00,
2013-02-21 20:42:00,31.0,31.0,-100.00,ESE,113,0.0,4.0,99,0.00,,,0.40,0.000000,,2013-02-22 04:42:00,
2013-02-21 20:51:00,31.0,31.0,-100.00,ESE,113,0.0,4.0,99,0.00,,,0.40,0.000000,,2013-02-22 04:51:00,
2013-02-21 21:22:00,30.0,30.0,-100.00,SE,127,0.0,5.0,100,0.00,,,0.40,0.000000,,2013-02-22 05:22:00,
2013-02-21 21:32:00,30.0,30.0,-100.00,SE,127,0.0,5.0,100,0.00,,,0.40,0.000000,,2013-02-22 05:32:00,
2013-02-21 21:41:00,30.0,30.0,-100.00,SE,127,0.0,5.0,100,0.00,,,0.40,0.000000,,2013-02-22 05:41:00,
2013-02-21 21:52:00,30.0,30.0,-100.00,SE,127,0.0,5.0,100,0.00,,,0.40,0.000000,,2013-02-22 05:52:00,
2013-02-21 22:21:00,30.0,30.0,-100.00,SE,126,1.0,4.0,99,0.00,,,0.40,0.000000,,2013-02-22 06:21:00,
2013-02-21 22:31:00,30.0,30.0,-100.00,SE,126,1.0,4.0,99,0.00,,,0.40,0.000000,,2013-02-22 06:31:00,
2013-02-21 22:42:00,30.0,30.0,-100.00,SE,126,1.0,4.0,99,0.00,,,0.40,0.000000,,2013-02-22 06:42:00,
2013-02-21 22:51:00,30.0,30.0,-100.00,SE,126,1.0,4.0,99,0.00,,,0.40,0.000000,,2013-02-22 06:51:00,
2013-02-21 23:21:00,29.0,29.0,-100.00,ESE,106,0.0,5.0,99,0.00,,,0.40,0.000000,,2013-02-22 07:21:00,
2013-02-21 23:31:00,29.0,29.0,-100.00,ESE,106,0.0,5.0,99,0.00,,,0.40,0.000000,,2013-02-22 07:31:00,
2013-02-21 23:42:00,29.0,29.0,-100.00,ESE,106,0.0,5.0,99,0.00,,,0.40,0.000000,,2013-02-22 07:42:00,
2013-02-21 23:51:00,29.0,29.0,-100.00,ESE,106,0.0,5.0,99,0.00,,,0.40,0.000000,,2013-02-22 07:51:00,